sat.trackr.live / text

‹ back to catalog

STARLINK-35227

NORAD 65654 · 2025-211C

PAYLOAD ACTIVE UNKNOWN

§ Identity

Operator
Country
US
Launch date
2025-09-19
Launch site
AFWTR
Launch vehicle
Mass (kg)
RCS (m²)

Purposes: comms

External: N2YO · Heavens-Above · Gunter

§ Orbital elements

Epoch: 2026-05-25T01:47:25.512576Z

Period
95.64 min
Inclination
97.4502°
Eccentricity
0.0001899
Mean motion
15.05636893 rev/d
Perigee alt
548.2 km
Apogee alt
550.9 km
Semi-major
6,927.7 km
B*
-4.2732e-4
RAAN
188.9597°
Arg perigee
149.4483°
Mean anomaly
210.6855°
Rev number
3,853

§ Raw data

STARLINK-352271 65654U 25211C   26145.07460084 -.00006217  00000+0 -42732-3 0  99922 65654  97.4502 188.9597 0001899 149.4483 210.6855 15.05636893 38534

JSON: /api/v1/satellites/65654 · /tle

For live sub-satellite position, see the globe view (requires WebGL).

§ Visibility from observer

Set your observer location to see the next 7 days of passes ≥ 10°. The values pass through the URL so the page stays shareable.

No JS? Fill the form by hand. The geolocation button needs JavaScript.